Starlink 1765

operational
NORAD ID: 46344 Int'l Des: 2020-062 Owner: SPXS Country: US Constellation: starlink
LEOCIRCULARSTARLINK_TYPE

关于 Starlink 1765

正在加载描述...

实时位置

正在加载3D地球...

即将过境

高度历史

Altitude vs Time

uPlot chart will show altitude changes over time

两行轨道根数

1 46344U 20062V 25304.88725911 .00092491 00000-0 22827-2 0 9994
2 46344 53.0517 208.5773 0006315 126.4856 233.6730 15.39755618285260
Epoch: Oct 31, 2025 • Age: 3 hours

当前状态

高度 450.1 km
速度 7.65 km/s
星下点 52.55°N, 126.61°W
发射日期 Sep 3, 2020
运行时间 5.1 years
类型 internet

技术详情

分类 Payload
质量 260.00 kg
干质量 248.00 kg
总质量 260.00 kg
长度 0.20 m
直径 2.80 m
跨度 9.00 m
形状 Box + pan
制造商 SPXS
平台类型 Starlink
阶段状态 In Orbit
所有者/国家 SPXS/US

大型星座

Loading constellations...